Find Globalstar M025

NORAD ID: 25770 Int'l Des: 1999-031 Owner: GLOBT Country: US Constellation: globalstar operational
MEOCIRCULAR

Live Position

Loading 3D Globe...

About Globalstar M025

Description loading...

Upcoming Passes

Passes for default location (London). Set your location on the main map for personalized predictions.

Altitude History

Loading altitude history...

Two-Line Element Set

1 25770U 99031A 26104.53264240 -.00000063 00000-0 14573-3 0 9995
2 25770 51.9799 181.1797 0002044 266.9205 105.7925 11.22560781515550
Epoch: Apr 14, 2026 • Age: 18 hours

Current Status

Altitude 2052.7 km
Velocity 6.88 km/s
Sub-Earth Point 41.75°N, 14.05°E
Launch Date Jun 10, 1999
Age 26.8 years
Type communications

Technical Details

Classification Payload
Mass 450.00 kg
Dry Mass 380.00 kg
Total Mass 450.00 kg
Length 1.50 m
Diameter 0.60 m
Span 12.00 m
Shape Box + 2 Pan
Manufacturer LOR
Bus Type LS-400
Phase Status In Orbit
Owner/State GLOBT/US

Most Searched